Regional Weather Roundup
Issued by NWS

Home | Current Version | Previous Version | Text Only | Print | Product List | Glossary Off
Versions: 1 2 3 4 5 6 7 8 9 10 11 12 13 14 15 16 17 18 19 20 21 22 23 24 25 26 27 28 29 30 31 32 33 34 35 36 37 38 39 40 41 42 43 44 45 46 47 48 49 50

000
ASUS43 KBIS 210859
RWRND

NORTH DAKOTA REGIONAL WEATHER ROUNDUP
NATIONAL WEATHER SERVICE BISMARCK ND
300 AM CST SUN DEC 21 2014

NOTE: "FAIR" INDICATES FEW OR NO CLOUDS BELOW 12,000 FEET WITH NO
SIGNIFICANT WEATHER AND/OR OBSTRUCTIONS TO VISIBILITY.


NDZ001>003-009>011-017-211000-
NORTHWEST NORTH DAKOTA

CITY           SKY/WX    TMP DP  RH WIND       PRES   REMARKS
WILLISTON      CLEAR     16  14  92 SW3       29.63F
MINOT          CLEAR     26  21  81 SW12      29.65F WCI  16
$$

NDZ018>021-031>035-040>046-211000-
SOUTHWEST NORTH DAKOTA

CITY           SKY/WX    TMP DP  RH WIND       PRES   REMARKS
BISMARCK       CLEAR     13  11  92 NE5       29.74F WCI   5
GARRISON         N/A     22  20  92 CALM      29.67F
HETTINGER ARPT PTCLDY    27  21  78 CALM      29.69F
$$

NDZ004>008-012>016-024-026-027-054-211000-
NORTHEAST NORTH DAKOTA

CITY           SKY/WX    TMP DP  RH WIND       PRES   REMARKS
GRAND FORKS    CLOUDY    30  28  92 S12       29.79F
GRND FRKS AFB  CLOUDY    28  28 100 S10       29.78F WCI  19
DEVILS LAKE    MOCLDY    27  19  74 S6        29.70S WCI  20
$$

NDZ022-023-025-028>030-036>039-047>053-211000-
SOUTHEAST NORTH DAKOTA

CITY           SKY/WX    TMP DP  RH WIND       PRES   REMARKS
FARGO          CLOUDY    32  29  88 S13       29.83F FOG
JAMESTOWN      FOG       25  21  86 S13       29.74F VSB 3/4 WCI  13
$$




USA.gov is the U.S. government's official web portal to all federal, state and local government web resources and services.